Dewpoint
9 8 12 8 -1 -5 -4 -3 -0 9 10 10 7 9 12 12 12 9 8 6 2 1 -2 10 11 12 13 12 10 8 6 11 9
9 7 6 8 9 5 5 7 5 6 10 10 10 11 12 12 12 11 9 3 3 2 -0 4 10 11 11 12 10 9 6 9 9
10 9 8 3 4 6 8 9 8 7 8 11 11 11 12 12 11 11 10 4 7 8 2 -2 8 10 11 11 10 9 8 9 9
11 11 10 7 3 3 4 7 8 8 10 11 11 10 11 12 12 12 10 6 8 9 8 5 1 10 10 10 10 10 9 10 10
11 11 11 11 9 7 3 2 3 8 9 10 10 9 10 11 11 11 9 10 7 9 9 8 -1 7 9 9 10 10 10 7 10
12 11 11 11 11 10 9 4 2 6 9 9 10 9 9 10 10 11 10 9 9 8 8 8 4 5 7 10 9 9 9 9 9
12 12 12 12 11 11 10 10 7 5 7 9 10 9 9 7 10 11 10 9 7 9 7 9 9 9 10 10 10 9 9 9 9
12 11 12 12 12 12 11 11 10 10 5 7 7 5 9 7 9 10 11 9 8 9 7 8 9 8 9 8 10 9 8 9 8
11 11 11 11 12 12 12 12 11 11 11 6 6 8 10 10 6 10 10 9 8 8 8 8 9 8 6 8 7 5 7 8 9
9 10 10 10 11 12 12 12 12 12 11 11 7 7 10 10 8 8 8 9 8 7 8 9 9 9 9 8 8 5 6 8 8
-0 4 7 9 10 10 11 11 12 12 11 10 11 8 9 10 11 10 9 8 8 8 8 8 9 9 10 9 8 5 6 7 8
-17 -10 -6 -1 3 7 9 10 11 11 12 11 11 11 9 8 10 10 10 9 9 9 8 7 8 9 8 8 8 5 4 7 8
-25 -23 -22 -18 -15 -9 -1 5 8 9 10 11 11 11 11 10 9 10 10 10 9 9 8 8 8 9 9 6 7 6 1 6 8
-26 -26 -26 -26 -25 -24 -21 -17 -8 4 7 10 10 10 9 10 10 9 9 10 10 9 9 8 9 8 10 7 7 7 2 3 5
-27 -27 -27 -27 -27 -27 -27 -26 -25 -20 -9 3 8 10 9 11 10 10 10 9 9 8 8 8 8 10 9 10 9 9 9 5 5
-31 -31 -31 -30 -30 -30 -29 -29 -28 -27 -26 -17 3 8 8 9 8 10 11 10 9 9 8 7 7 8 9 9 7 9 10 9 5
-33 -33 -33 -33 -33 -32 -32 -31 -29 -28 -27 -19 -15 6 7 9 10 9 10 10 10 9 9 8 6 6 9 9 9 7 8 9 9
-32 -31 -31 -31 -32 -32 -30 -28 -28 -28 -28 -26 -12 1 4 5 8 10 10 10 10 10 9 8 8 6 7 9 8 7 6 8 9
-32 -30 -28 -27 -27 -28 -28 -26 -23 -23 -28 -26 -20 -2 -4 -3 1 6 7 9 10 9 9 9 7 8 6 9 9 8 6 5 5
-31 -29 -28 -26 -25 -24 -24 -24 -23 -21 -22 -22 -20 -22 -19 -17 -5 0 5 7 8 9 9 9 7 4 5 6 9 9 8 8 6
Wind_Speed
7 7 6 6 6 5 2 0 2 3 3 7 10 10 8 5 3 4 3 3 2 1 2 5 5 5 3 4 6 7 9 11 10
7 7 5 5 5 3 2 2 1 2 3 5 8 9 8 4 0 3 5 4 3 3 2 6 6 6 6 2 4 5 6 8 9
5 6 5 5 4 3 3 2 2 3 4 5 7 8 7 5 3 5 6 3 2 3 3 5 8 7 7 3 3 4 5 6 6
2 3 5 4 4 4 4 5 4 4 4 6 7 8 7 6 5 3 7 4 2 2 4 1 11 9 8 4 3 2 4 9 8
6 6 4 3 5 5 6 7 8 8 6 7 7 8 9 7 6 4 7 7 5 2 2 1 5 12 10 8 5 3 3 7 8
8 8 7 7 6 7 9 7 8 10 9 8 8 8 9 10 9 8 7 11 9 6 4 3 5 10 11 10 7 4 0 5 8
8 9 10 10 10 9 9 10 10 11 13 13 13 12 11 12 11 12 12 14 14 11 6 6 8 9 9 8 11 8 6 6 10
10 10 11 12 12 13 13 12 13 15 15 17 17 14 9 12 16 15 16 16 15 16 11 11 13 13 15 16 12 10 10 10 8
12 11 12 13 13 15 16 17 17 18 19 20 21 19 14 10 18 17 15 19 17 18 18 14 14 15 15 16 16 16 15 13 11
11 13 15 14 15 15 16 21 20 21 22 22 24 25 20 17 16 19 17 21 20 21 21 19 16 17 16 14 13 13 14 16 14
14 13 13 14 16 18 18 23 21 26 25 27 26 28 28 24 21 22 23 24 24 19 23 22 19 20 20 17 16 14 16 18 18
17 17 16 17 16 16 16 21 25 29 26 33 29 31 32 33 31 31 23 23 25 23 23 27 22 23 21 20 18 16 17 21 22
19 19 19 20 20 20 19 19 19 26 28 34 32 33 38 35 36 35 36 28 27 28 27 27 28 24 25 23 21 18 16 20 23
22 23 23 22 23 22 22 23 23 23 22 27 32 31 29 38 36 37 38 37 36 33 30 30 31 29 27 25 23 22 18 19 21
24 24 25 26 25 25 25 25 24 23 26 27 26 32 29 34 38 36 37 38 38 37 34 33 32 33 30 28 25 26 23 20 21
26 27 27 27 27 28 28 28 29 26 26 26 26 23 23 37 46 39 40 43 40 39 37 34 32 34 34 32 29 29 28 24 23
26 27 28 29 29 28 29 29 29 27 25 23 25 15 20 22 32 41 49 44 43 43 43 40 38 37 36 35 35 32 31 31 27
26 27 27 27 28 29 29 29 28 29 27 20 14 9 7 23 9 27 43 43 41 44 44 45 44 42 40 38 37 35 34 33 33
24 26 28 28 28 28 28 29 28 28 29 28 14 14 19 11 23 19 18 32 47 43 43 44 47 47 44 41 42 38 35 35 34
22 25 27 28 29 28 29 29 29 28 27 28 29 27 24 22 24 31 26 11 25 45 47 44 44 44 47 48 45 43 41 39 37
Wind_Direction
29 29 24 20 27 32 60 143 175 163 151 148 148 134 128 109 39 314 22 26 315 276 172 141 144 157 149 111 86 89 125 130 122
14 12 16 6 6 19 43 43 332 209 198 177 163 151 144 126 333 5 351 348 337 320 238 181 181 177 203 168 102 94 115 140 120
1 357 356 354 352 343 319 301 305 291 252 188 170 180 160 164 176 327 340 340 359 350 320 207 174 197 210 218 137 105 106 144 133
281 319 333 330 333 328 307 289 279 266 240 210 193 192 204 191 201 253 313 326 343 4 351 25 191 189 199 208 152 120 118 152 154
248 257 253 288 304 300 298 293 272 261 250 244 220 208 214 222 233 253 272 291 294 296 329 23 194 191 198 210 209 175 125 169 178
253 259 253 250 250 272 284 284 273 262 249 237 235 240 229 227 234 235 269 281 282 266 272 241 157 189 203 207 223 243 323 166 188
266 263 256 242 249 253 258 278 275 267 258 250 241 243 248 233 236 240 251 283 286 249 253 243 205 189 215 210 227 246 233 223 217
279 276 261 252 248 254 255 256 262 269 267 259 252 243 240 252 237 247 248 276 287 270 240 237 227 215 218 234 250 253 247 251 207
296 287 276 273 273 264 261 263 259 253 260 263 261 249 238 251 232 245 248 263 272 278 250 233 235 226 217 230 244 255 243 237 205
331 307 295 281 270 266 270 262 262 264 257 257 257 252 249 236 230 241 252 255 262 271 246 244 243 237 229 232 239 248 235 224 219
335 333 327 307 292 280 279 268 265 263 263 264 257 250 248 245 242 244 247 253 260 261 252 252 241 238 232 238 241 245 236 230 221
341 335 328 321 324 311 294 280 276 269 270 262 267 254 245 244 240 245 242 243 247 249 251 252 245 237 238 239 239 239 227 220 217
341 336 331 327 323 318 313 307 297 281 274 266 271 269 253 245 239 244 246 244 246 250 250 248 248 242 237 236 234 236 221 213 218
338 336 333 328 323 320 317 316 316 304 301 276 267 267 272 252 248 248 246 245 247 248 251 250 252 247 240 238 236 231 220 218 222
334 331 327 325 324 322 318 315 314 318 309 301 296 272 278 251 248 256 251 242 243 245 249 251 250 248 240 236 237 228 226 220 222
332 329 327 324 322 323 322 318 315 313 316 313 290 277 279 263 258 254 254 247 242 244 245 247 246 245 243 238 237 234 233 230 224
332 328 326 324 321 320 319 320 317 314 323 328 329 320 306 280 264 255 252 242 239 239 244 247 247 241 239 241 239 235 235 236 233
330 329 326 322 320 319 320 320 319 315 312 320 332 327 304 301 334 262 256 251 245 245 242 245 247 246 239 237 236 234 233 235 237
326 325 325 324 320 317 315 316 316 313 308 308 290 255 282 309 304 264 289 271 250 246 250 243 244 245 243 237 233 234 234 235 237
323 321 321 320 319 317 314 312 311 311 307 303 302 296 290 284 278 289 286 275 259 255 248 249 246 245 245 241 235 235 236 240 239
Height
1574 1574 1573 1573 1573 1573 1574 1574 1575 1575 1576 1578 1579 1579 1579 1579 1579 1578 1579 1578 1578 1578 1578 1579 1579 1579 1578 1578 1579 1579 1579 1580 1579
1574 1574 1574 1574 1574 1574 1575 1575 1576 1576 1577 1578 1579 1580 1579 1579 1580 1580 1579 1579 1578 1578 1578 1579 1580 1580 1580 1579 1580 1580 1580 1581 1581
1573 1574 1574 1574 1574 1574 1575 1575 1576 1577 1578 1578 1579 1580 1580 1579 1579 1580 1581 1580 1579 1578 1578 1579 1580 1580 1581 1581 1581 1582 1582 1582 1583
1572 1572 1573 1573 1573 1574 1574 1575 1575 1576 1577 1578 1579 1580 1580 1580 1579 1580 1581 1581 1580 1579 1579 1579 1579 1580 1581 1581 1582 1582 1583 1584 1584
1570 1570 1570 1570 1572 1572 1573 1573 1574 1575 1576 1577 1578 1578 1579 1579 1579 1580 1581 1581 1580 1580 1580 1579 1579 1580 1581 1582 1582 1583 1584 1585 1585
1569 1568 1569 1569 1568 1569 1571 1572 1573 1573 1574 1575 1577 1577 1578 1579 1578 1579 1579 1580 1580 1579 1579 1579 1579 1580 1580 1581 1582 1583 1584 1585 1585
1566 1566 1566 1566 1567 1567 1567 1569 1571 1571 1573 1573 1574 1575 1576 1577 1577 1576 1578 1578 1578 1577 1578 1578 1579 1579 1580 1581 1582 1583 1584 1585 1585
1564 1564 1564 1564 1564 1565 1565 1565 1567 1569 1569 1570 1571 1571 1572 1573 1573 1573 1574 1576 1576 1576 1575 1576 1577 1578 1579 1580 1581 1582 1583 1583 1584
1561 1561 1561 1561 1561 1562 1562 1562 1563 1563 1565 1567 1567 1568 1568 1569 1569 1570 1571 1573 1574 1573 1572 1573 1574 1576 1577 1578 1579 1580 1582 1582 1583
1559 1559 1559 1558 1558 1558 1559 1559 1559 1559 1560 1561 1563 1563 1564 1564 1565 1566 1567 1569 1569 1570 1569 1570 1571 1572 1573 1575 1576 1577 1579 1581 1582
1558 1557 1556 1556 1555 1554 1554 1555 1554 1555 1555 1555 1557 1558 1559 1560 1561 1561 1562 1564 1565 1565 1566 1566 1567 1568 1569 1570 1572 1573 1574 1577 1579
1555 1555 1554 1553 1552 1551 1551 1550 1550 1550 1549 1549 1548 1551 1553 1554 1557 1557 1557 1559 1560 1561 1562 1562 1563 1565 1566 1567 1568 1569 1570 1573 1576
1554 1554 1551 1550 1550 1549 1547 1546 1545 1544 1543 1541 1540 1542 1544 1546 1550 1551 1551 1553 1554 1555 1557 1558 1558 1560 1562 1563 1564 1565 1566 1568 1571
1554 1552 1550 1548 1546 1545 1544 1543 1541 1539 1536 1535 1534 1536 1536 1537 1542 1544 1545 1546 1548 1548 1550 1553 1554 1556 1557 1559 1560 1561 1563 1565 1567
1551 1550 1548 1546 1545 1543 1541 1538 1537 1536 1533 1530 1528 1526 1527 1529 1532 1535 1538 1539 1540 1541 1543 1545 1547 1549 1552 1554 1556 1557 1558 1560 1562
1548 1547 1545 1543 1542 1540 1538 1535 1532 1532 1530 1525 1524 1522 1520 1522 1521 1524 1528 1531 1533 1534 1535 1536 1538 1542 1544 1547 1550 1552 1554 1556 1558
1546 1544 1542 1541 1538 1538 1536 1533 1530 1530 1529 1526 1523 1517 1515 1513 1511 1514 1518 1519 1525 1526 1527 1527 1530 1532 1536 1539 1543 1546 1548 1550 1553
1544 1542 1540 1539 1538 1535 1532 1530 1529 1527 1527 1528 1530 1524 1517 1508 1507 1508 1510 1512 1513 1517 1519 1519 1521 1524 1526 1530 1534 1537 1541 1543 1546
1542 1539 1536 1535 1534 1532 1530 1528 1526 1525 1523 1522 1527 1527 1524 1518 1508 1503 1504 1504 1505 1507 1509 1510 1512 1515 1517 1519 1524 1529 1532 1535 1538
1540 1536 1534 1531 1529 1527 1526 1524 1522 1521 1520 1519 1517 1516 1517 1518 1515 1505 1497 1493 1496 1498 1499 1501 1504 1504 1508 1510 1514 1519 1523 1527 1530